Temp
87 89 82 83 83 83 83 83 83 83 83 83 83 83 83 83 83 83 83 83 84 84 84 83 84 85 84 84 83 83 83 84 83 83 83 83 83 83 83 84 86 90 82
92 91 82 83 83 83 83 83 83 83 83 83 83 83 83 83 83 83 83 83 84 84 83 84 84 85 84 83 83 83 83 83 84 84 84 83 83 83 83 83 84 86 82
93 93 89 83 83 83 83 83 83 83 83 83 83 83 83 83 83 83 83 84 84 84 84 84 84 84 84 84 83 83 84 83 83 85 87 93 90 83 82 82 83 82 82
96 97 94 81 83 83 83 83 83 83 83 83 83 83 83 83 83 83 83 83 84 84 84 84 84 84 84 84 84 83 83 83 84 86 95 95 92 83 83 83 82 82 82
96 97 90 82 83 83 83 83 83 83 83 83 83 83 83 83 83 84 84 83 84 84 84 84 84 84 83 84 83 83 83 83 85 90 92 92 92 85 83 82 83 82 82
96 98 85 83 83 83 83 83 83 83 83 82 83 84 83 83 84 84 84 84 84 84 84 84 84 84 84 84 84 83 83 85 88 93 90 88 88 83 83 83 83 83 82
98 97 93 83 83 83 83 83 83 83 83 83 83 83 83 83 84 83 83 84 84 83 84 84 84 83 84 84 83 83 83 86 93 90 91 89 86 82 83 83 83 82 82
97 98 92 84 83 83 83 83 83 83 83 83 83 83 84 84 84 84 84 84 84 84 84 84 84 84 83 83 83 83 84 86 94 92 88 90 82 83 83 83 82 82 82
99 97 93 93 87 83 83 83 83 83 83 83 83 83 83 84 84 84 85 85 84 84 84 84 84 83 83 83 82 82 82 85 93 91 92 88 81 82 82 82 82 82 82
96 96 95 94 94 92 91 83 84 83 83 84 84 84 83 84 84 85 84 84 84 84 84 84 84 83 83 83 82 82 83 84 93 93 94 89 81 83 83 82 82 82 81
94 95 95 96 92 87 88 86 84 83 84 84 83 83 85 95 94 92 85 84 85 85 84 84 84 83 83 83 82 82 83 97 97 96 93 80 81 83 82 82 81 81 81
91 94 96 95 93 92 92 89 91 92 95 94 92 90 93 93 91 92 87 85 85 84 84 83 83 84 88 94 93 85 97 95 96 95 89 81 82 82 82 81 81 81 81
92 94 94 92 92 93 89 94 94 94 93 91 89 91 91 93 93 94 92 93 92 88 95 92 92 95 93 96 96 96 95 96 97 96 86 82 82 82 82 82 81 81 81
90 91 94 92 90 90 94 94 94 94 94 93 91 89 90 92 92 92 93 92 92 95 92 94 94 91 91 92 94 94 94 97 97 97 87 81 82 82 82 81 81 81 81
89 89 92 91 87 86 89 92 93 92 95 93 93 91 93 93 90 92 90 93 93 95 93 92 92 93 92 93 94 93 94 93 94 97 93 81 81 81 82 82 82 81 81
88 88 92 90 88 88 90 88 90 93 93 94 94 92 90 93 90 91 91 92 93 95 94 93 91 93 94 94 92 93 93 94 92 94 96 89 81 81 81 82 81 81 81
90 90 90 90 90 88 88 88 91 93 95 94 94 90 90 91 89 88 92 93 93 91 90 91 92 93 95 95 91 92 94 93 93 92 97 97 88 81 81 81 81 81 81
91 88 89 92 91 89 89 89 92 93 94 95 95 94 90 90 89 88 92 92 93 93 94 94 95 94 94 94 93 94 94 95 92 92 95 96 95 98 83 82 80 81 81
90 88 87 89 89 88 87 90 91 90 93 95 95 95 89 91 90 90 93 92 90 94 94 95 94 94 92 94 95 95 95 96 95 98 94 95 94 97 97 81 81 80 81
90 89 88 89 88 87 88 88 92 92 93 94 95 95 90 92 89 88 91 89 93 94 93 94 90 94 94 94 97 95 98 98 98 99 98 99 96 96 99 94 95 91 81
90 88 87 86 86 87 88 88 89 89 91 92 94 90 89 91 89 88 91 90 92 92 90 90 91 89 92 93 93 94 95 95 96 99 101 101 97 99 98 99 96 97 94
89 88 86 86 85 86 89 89 91 91 93 94 93 90 91 90 88 89 89 90 90 92 89 89 90 93 93 94 91 92 89 91 96 100 100 100 97 101 101 98 97 95 95
89 87 86 85 85 86 88 89 87 89 88 84 89 91 91 90 89 90 89 92 89 92 92 89 90 88 91 93 89 90 87 86 92 96 94 98 95 100 100 98 98 97 95
91 90 88 86 86 87 86 87 85 88 88 92 92 93 92 90 90 90 89 89 88 93 90 90 92 92 88 90 93 95 90 88 88 87 94 95 97 98 96 101 100 99 97
93 92 90 87 85 87 86 87 88 86 92 92 94 86 89 87 90 91 89 89 88 92 89 90 88 88 92 94 94 94 90 94 89 90 88 92 96 99 99 101 102 103 100
94 93 91 86 84 85 86 85 85 86 88 91 90 84 89 89 90 90 90 88 88 90 89 90 89 88 91 92 94 92 93 89 91 92 91 90 92 95 99 100 100 102 102
MSLP
1016.15 1016.71 1017.50 1017.73 1017.81 1017.90 1018.01 1018.10 1018.24 1018.27 1018.29 1018.39 1018.47 1018.50 1018.51 1018.51 1018.53 1018.54 1018.54 1018.50 1018.45 1018.45 1018.48 1018.50 1018.56 1018.48 1018.63 1018.69 1018.81 1018.97 1019.02 1018.99 1018.96 1019.15 1019.20 1019.34 1019.45 1019.43 1019.28 1019.14 1018.65 1019.08 1019.67
1015.69 1016.63 1017.61 1017.79 1017.98 1018.11 1018.19 1018.44 1018.50 1018.47 1018.47 1018.55 1018.67 1018.69 1018.67 1018.66 1018.62 1018.68 1018.74 1018.77 1018.79 1018.85 1018.75 1018.86 1018.90 1018.93 1019.00 1019.18 1019.29 1019.33 1019.37 1019.27 1019.24 1019.27 1019.27 1019.66 1019.85 1019.81 1019.71 1019.61 1019.56 1019.93 1020.09
1015.68 1016.54 1017.33 1017.90 1018.14 1018.35 1018.39 1018.56 1018.65 1018.67 1018.65 1018.64 1018.75 1018.76 1018.79 1018.80 1018.79 1018.89 1018.97 1019.01 1019.07 1019.11 1019.06 1019.16 1019.18 1019.30 1019.37 1019.44 1019.61 1019.56 1019.58 1019.68 1019.54 1019.27 1018.93 1018.96 1019.87 1020.35 1020.35 1020.37 1020.40 1020.43 1020.45
1015.41 1016.02 1016.93 1018.08 1018.34 1018.57 1018.66 1018.78 1018.88 1018.84 1018.81 1018.83 1018.93 1018.99 1019.06 1019.12 1019.13 1019.17 1019.24 1019.27 1019.25 1019.33 1019.38 1019.43 1019.48 1019.65 1019.72 1019.69 1019.69 1019.95 1020.09 1020.12 1019.85 1019.44 1018.61 1018.88 1019.88 1020.78 1020.80 1020.74 1020.72 1020.68 1020.72
1015.34 1015.75 1017.41 1018.22 1018.49 1018.74 1018.83 1018.95 1019.03 1019.08 1019.15 1019.19 1019.25 1019.31 1019.42 1019.47 1019.49 1019.43 1019.35 1019.42 1019.49 1019.56 1019.66 1019.71 1019.82 1019.89 1020.03 1019.97 1020.13 1020.35 1020.45 1020.42 1020.06 1019.47 1019.51 1019.54 1019.87 1021.02 1021.07 1021.05 1020.91 1020.92 1020.97
1015.61 1015.86 1017.95 1018.26 1018.59 1018.80 1018.94 1019.02 1019.20 1019.27 1019.43 1019.45 1019.48 1019.53 1019.67 1019.63 1019.61 1019.55 1019.59 1019.66 1019.77 1019.83 1019.95 1019.97 1020.12 1020.16 1020.13 1020.37 1020.51 1020.71 1020.78 1020.45 1019.87 1019.82 1020.35 1020.69 1020.84 1021.41 1021.44 1021.37 1021.30 1021.37 1021.33
1015.29 1016.26 1017.54 1018.38 1018.71 1018.89 1019.03 1019.09 1019.29 1019.48 1019.69 1019.71 1019.71 1019.81 1019.88 1019.84 1019.78 1019.83 1019.83 1019.88 1020.01 1020.20 1020.20 1020.28 1020.24 1020.49 1020.58 1020.73 1020.91 1021.05 1021.02 1020.58 1020.04 1020.21 1020.29 1020.73 1021.48 1021.77 1021.81 1021.81 1021.74 1021.62 1021.67
1015.47 1015.95 1017.58 1018.57 1018.77 1019.03 1019.16 1019.33 1019.52 1019.69 1019.89 1019.90 1020.01 1020.09 1020.05 1020.09 1020.06 1020.00 1020.00 1020.05 1020.16 1020.36 1020.49 1020.53 1020.52 1020.65 1020.86 1021.07 1021.18 1021.25 1021.18 1020.67 1020.19 1020.39 1020.71 1021.19 1022.16 1022.03 1022.07 1022.11 1022.02 1021.91 1021.90
1015.62 1016.05 1017.25 1017.81 1018.72 1019.16 1019.35 1019.57 1019.68 1019.88 1020.05 1020.15 1020.18 1020.30 1020.29 1020.30 1020.29 1020.24 1020.26 1020.28 1020.41 1020.67 1020.75 1020.75 1020.87 1021.08 1021.16 1021.25 1021.46 1021.53 1021.55 1021.11 1020.51 1020.61 1020.73 1021.71 1022.41 1022.33 1022.37 1022.36 1022.34 1022.28 1022.25
1015.95 1016.32 1016.86 1017.53 1017.92 1018.15 1018.97 1019.67 1019.84 1020.05 1020.20 1020.31 1020.44 1020.42 1020.43 1020.39 1020.46 1020.46 1020.51 1020.62 1020.71 1020.83 1021.03 1021.13 1021.19 1021.37 1021.49 1021.62 1021.69 1021.79 1021.53 1021.17 1020.96 1020.63 1020.93 1022.29 1022.60 1022.61 1022.69 1022.71 1022.65 1022.60 1022.62
1016.27 1016.62 1017.14 1017.22 1018.04 1018.85 1019.19 1019.70 1019.95 1020.24 1020.40 1020.36 1020.65 1020.65 1020.18 1019.43 1019.64 1020.09 1020.76 1020.95 1021.02 1021.14 1021.29 1021.49 1021.57 1021.45 1021.63 1021.87 1021.92 1021.81 1021.35 1020.39 1020.43 1020.57 1021.52 1022.99 1023.02 1022.91 1022.94 1023.03 1022.94 1022.95 1022.94
1016.30 1016.51 1016.74 1017.22 1017.86 1018.38 1018.68 1019.19 1019.20 1019.48 1019.21 1019.51 1019.88 1020.11 1019.80 1019.89 1020.16 1020.31 1020.96 1021.22 1021.28 1021.38 1021.48 1021.67 1021.66 1021.37 1020.92 1020.60 1021.08 1021.24 1020.59 1020.99 1020.77 1020.74 1022.37 1023.15 1023.09 1023.17 1023.21 1023.24 1023.18 1023.13 1023.17
1016.26 1016.63 1017.07 1017.68 1018.09 1018.19 1018.88 1018.75 1018.95 1019.20 1019.59 1020.17 1020.38 1020.15 1020.28 1020.09 1020.07 1020.14 1020.51 1020.56 1020.83 1021.07 1020.42 1020.89 1020.79 1020.67 1020.84 1020.42 1020.45 1020.69 1021.13 1020.79 1020.85 1020.95 1022.78 1023.21 1023.24 1023.34 1023.44 1023.37 1023.31 1023.28 1023.28
1016.63 1017.14 1017.30 1017.86 1018.33 1018.40 1018.58 1018.75 1019.01 1019.15 1019.43 1019.67 1020.37 1020.58 1020.43 1020.07 1020.32 1020.33 1020.41 1020.83 1020.70 1020.50 1020.89 1020.77 1020.83 1021.27 1021.33 1021.23 1020.98 1021.04 1021.17 1020.81 1020.90 1021.04 1022.76 1023.35 1023.41 1023.50 1023.53 1023.45 1023.45 1023.45 1023.37
1016.83 1017.46 1017.49 1018.05 1018.76 1019.10 1019.05 1019.07 1019.13 1019.56 1019.21 1019.93 1020.19 1020.50 1020.15 1020.15 1020.60 1020.55 1020.93 1020.67 1020.82 1020.78 1020.94 1020.95 1021.03 1021.02 1021.12 1021.15 1021.16 1021.28 1021.37 1021.59 1021.48 1021.30 1021.95 1023.37 1023.51 1023.53 1023.49 1023.48 1023.45 1023.43 1023.38
1017.04 1017.67 1017.75 1018.33 1018.86 1019.21 1019.20 1019.71 1019.73 1019.52 1019.83 1019.73 1019.93 1020.49 1020.72 1020.29 1020.71 1020.76 1020.89 1020.82 1020.83 1020.79 1020.96 1021.03 1021.21 1020.80 1020.72 1021.00 1021.49 1021.57 1021.47 1021.61 1021.95 1021.62 1021.65 1022.77 1023.39 1023.48 1023.48 1023.51 1023.46 1023.40 1023.34
1017.04 1017.52 1017.96 1018.35 1018.71 1019.22 1019.52 1019.93 1019.66 1019.73 1019.57 1019.71 1019.95 1020.63 1020.67 1020.57 1020.99 1021.17 1020.75 1020.79 1020.84 1021.32 1021.45 1021.39 1021.24 1021.06 1020.75 1020.87 1021.52 1021.56 1021.45 1021.73 1021.85 1022.02 1021.69 1021.55 1022.65 1023.15 1023.31 1023.34 1023.37 1023.39 1023.35
1016.73 1017.54 1018.13 1018.18 1018.67 1019.16 1019.44 1019.87 1019.60 1019.62 1019.60 1019.56 1019.89 1020.23 1020.68 1020.93 1021.07 1021.19 1020.74 1020.93 1021.04 1021.04 1020.97 1020.94 1020.75 1020.72 1020.81 1020.86 1021.17 1021.17 1021.41 1021.40 1021.83 1021.97 1021.74 1021.67 1021.83 1021.45 1022.83 1023.13 1023.26 1023.28 1023.28
1016.68 1017.49 1018.11 1018.45 1018.79 1019.20 1019.64 1019.74 1019.78 1019.96 1019.76 1019.64 1019.84 1020.11 1020.76 1020.87 1021.19 1021.23 1020.81 1021.09 1021.25 1020.89 1020.89 1020.68 1020.95 1020.84 1020.97 1020.79 1020.78 1021.19 1021.21 1021.09 1021.30 1021.10 1021.64 1021.74 1021.83 1021.71 1021.64 1022.73 1022.99 1023.07 1023.10
1016.68 1017.47 1018.01 1018.53 1018.92 1019.27 1019.55 1019.79 1019.64 1019.69 1019.75 1019.76 1019.81 1019.97 1020.70 1020.67 1021.21 1021.45 1021.23 1021.41 1020.92 1020.75 1020.91 1020.83 1021.20 1021.12 1020.89 1020.98 1020.41 1020.89 1020.90 1020.83 1020.98 1020.83 1020.80 1020.93 1021.31 1021.59 1021.47 1021.97 1021.87 1022.04 1022.66
1016.41 1017.19 1017.85 1018.42 1018.96 1019.29 1019.40 1019.44 1019.49 1019.53 1019.65 1019.79 1019.75 1020.40 1020.70 1020.69 1021.04 1021.38 1020.99 1021.35 1021.03 1020.86 1021.16 1021.42 1021.40 1021.50 1021.18 1021.42 1020.71 1020.51 1020.61 1020.85 1020.73 1020.62 1020.49 1020.57 1020.86 1020.99 1021.29 1021.31 1021.53 1021.45 1021.65
1015.97 1016.83 1017.66 1018.34 1018.89 1019.25 1019.17 1019.27 1019.23 1019.28 1019.31 1019.36 1019.69 1020.29 1020.49 1020.72 1021.09 1021.07 1021.14 1021.03 1021.09 1021.03 1021.49 1021.56 1021.45 1020.99 1021.15 1021.48 1020.83 1020.46 1019.92 1020.21 1020.09 1020.17 1020.41 1020.62 1020.77 1020.67 1020.77 1021.05 1021.33 1021.56 1021.56
1015.59 1016.48 1017.27 1018.10 1018.73 1019.15 1019.07 1019.37 1019.75 1019.63 1019.93 1020.23 1020.01 1020.14 1020.34 1020.65 1020.89 1020.98 1021.18 1020.86 1021.41 1020.99 1021.11 1021.58 1021.54 1021.46 1020.90 1021.61 1021.76 1020.89 1019.86 1019.58 1019.71 1020.12 1020.48 1020.41 1020.82 1020.53 1020.64 1020.84 1020.99 1021.15 1021.30
1014.99 1016.05 1016.93 1017.84 1018.54 1019.01 1019.31 1019.25 1019.38 1019.09 1018.99 1019.06 1019.49 1019.61 1020.09 1020.69 1020.85 1020.98 1021.10 1021.25 1021.52 1020.99 1021.20 1021.51 1021.41 1021.46 1021.54 1021.17 1021.47 1021.47 1021.68 1021.45 1019.91 1019.51 1020.08 1020.37 1020.46 1020.21 1020.66 1020.31 1020.35 1020.59 1020.92
1014.55 1015.44 1016.49 1017.57 1018.27 1018.65 1019.11 1019.16 1019.36 1019.31 1018.94 1019.37 1019.18 1020.05 1020.21 1020.79 1020.87 1020.85 1021.11 1021.21 1021.37 1021.04 1021.46 1021.56 1021.80 1021.88 1021.70 1021.27 1021.14 1021.22 1021.45 1021.17 1021.23 1019.77 1019.44 1019.83 1020.04 1020.13 1020.17 1020.16 1020.19 1020.19 1020.50
1013.97 1014.75 1015.73 1016.95 1017.83 1018.42 1018.87 1019.23 1019.33 1019.15 1019.15 1018.90 1019.40 1020.20 1020.37 1020.51 1020.60 1020.81 1021.02 1021.15 1021.22 1021.14 1021.46 1021.55 1021.73 1022.01 1021.75 1021.71 1021.50 1021.55 1021.06 1020.85 1020.35 1019.99 1019.72 1019.91 1019.68 1020.06 1020.00 1020.01 1020.16 1020.14 1020.17
Wind_Speed
12 14 10 14 13 13 13 13 12 13 13 12 12 11 10 10 11 10 10 11 9 11 12 12 12 14 13 13 16 15 14 15 16 17 17 17 16 14 11 11 14 18 16
16 15 11 14 14 13 13 14 13 12 13 12 12 11 10 10 11 10 9 10 11 11 12 11 12 13 13 13 13 14 14 13 14 16 18 17 17 16 17 18 18 16 16
16 16 14 12 13 13 12 14 12 11 10 12 13 12 11 12 11 10 9 9 9 11 11 11 11 12 12 13 14 14 15 14 12 9 8 14 15 15 15 16 16 15 15
17 16 16 12 12 12 11 13 11 10 10 13 13 12 12 11 11 11 13 10 11 10 11 11 11 12 12 13 15 15 14 11 6 3 8 14 14 14 14 15 14 14 15
15 15 17 15 13 12 11 12 11 12 11 13 13 12 12 12 11 10 12 13 9 11 11 10 12 12 12 14 15 14 13 11 6 10 10 11 12 11 13 11 14 16 15
15 15 15 15 14 12 11 11 11 11 11 11 11 12 11 13 12 11 12 13 11 11 11 11 11 10 13 13 14 13 11 6 5 13 10 13 13 13 13 14 13 14 13
15 16 15 12 12 11 9 11 12 11 11 11 11 12 11 12 12 12 11 13 14 13 12 11 10 12 13 14 14 13 10 6 10 10 12 12 12 12 13 13 13 13 13
14 15 15 12 12 11 10 9 11 11 11 12 12 12 12 12 12 12 12 13 14 13 11 11 12 14 16 16 14 13 8 1 9 10 8 12 9 11 12 12 12 13 13
12 13 11 14 11 9 10 9 11 11 11 11 12 12 13 13 12 13 13 13 13 12 12 14 14 14 15 15 14 13 8 4 9 6 14 8 9 10 12 11 12 11 11
11 12 10 10 11 10 12 10 10 11 11 12 12 12 13 13 13 13 14 13 12 12 14 14 14 15 15 14 13 11 8 7 10 7 11 8 8 11 11 12 10 11 11
10 10 10 11 10 7 8 9 10 11 11 13 13 7 12 8 11 12 14 12 11 12 13 12 12 14 16 13 10 6 10 6 7 6 8 7 8 9 10 10 11 11 10
13 12 10 9 10 10 10 9 8 9 6 7 9 7 7 8 10 12 11 11 11 11 11 11 8 5 9 8 8 11 6 6 5 7 8 7 7 9 10 8 9 8 8
13 9 10 9 8 8 7 6 5 5 6 7 8 7 6 7 6 6 6 7 7 5 6 6 6 6 6 5 6 7 6 5 5 7 10 6 8 8 8 7 7 7 9
13 10 10 10 8 7 6 5 5 6 6 7 8 8 6 6 6 5 5 6 3 5 5 4 6 6 6 5 7 7 6 5 5 5 9 8 6 7 5 7 5 5 5
12 9 11 10 8 6 6 5 5 7 5 8 7 5 5 6 5 5 4 4 4 4 5 5 6 4 6 7 7 6 8 7 5 4 8 7 5 5 4 4 3 3 3
12 13 11 11 9 8 6 5 5 5 7 5 6 7 4 5 4 5 5 4 4 4 5 5 5 4 5 8 7 7 6 6 6 3 5 9 6 3 2 2 2 2 3
12 13 12 11 10 9 8 7 5 6 6 6 6 5 5 3 5 3 4 3 4 4 4 4 4 4 6 6 6 6 6 4 7 5 3 3 11 10 5 2 0 2 3
13 13 12 10 11 10 9 7 5 5 4 4 4 5 4 3 4 4 4 4 4 4 4 3 3 5 5 5 4 4 5 5 5 5 4 2 3 4 11 6 1 3 4
13 13 13 11 12 11 9 8 6 5 4 4 4 3 4 2 5 4 3 5 5 4 3 4 4 2 5 4 7 5 4 4 4 5 3 1 6 2 4 10 7 6 5
13 13 13 11 11 10 8 6 6 6 5 4 3 3 4 3 5 5 4 4 5 4 5 5 3 3 3 3 4 5 2 3 2 1 3 3 5 3 2 2 2 8 9
13 14 13 13 12 10 9 8 7 7 5 4 3 4 4 4 3 5 5 6 4 4 6 4 6 4 5 3 4 4 4 5 4 1 0 1 5 2 2 2 3 3 6
14 14 14 13 12 11 9 7 6 5 5 4 4 5 4 5 4 4 3 5 3 6 4 4 1 3 3 2 4 3 2 7 5 2 2 1 3 1 2 2 1 1 3
15 15 14 14 13 12 10 7 5 5 3 3 5 6 6 5 5 5 6 3 4 4 6 4 3 2 5 1 3 6 2 5 3 4 4 4 3 2 2 3 2 2 2
16 15 14 14 13 12 12 9 9 7 6 6 6 6 7 6 6 7 6 5 4 5 4 5 4 1 5 5 3 2 4 5 5 7 5 5 4 4 4 3 4 4 1
16 15 14 13 13 12 12 11 9 9 6 5 5 7 5 6 6 6 7 7 5 6 4 2 3 2 4 1 2 1 2 1 3 5 5 6 5 4 4 2 2 1 2
17 16 15 15 14 14 13 13 12 9 8 6 6 6 7 7 6 7 7 7 7 3 5 6 4 4 2 1 3 3 2 3 4 2 5 3 4 4 4 3 2 2 3
Wind_Direction
154 130 138 129 126 117 117 108 107 108 106 103 101 99 95 88 83 79 79 70 86 80 79 77 80 91 88 85 83 89 93 92 94 92 93 89 85 85 83 101 116 86 78
140 137 148 130 125 125 117 116 117 114 115 117 109 103 99 97 87 87 84 80 82 88 88 87 86 86 82 83 89 97 93 92 93 103 106 92 81 78 72 65 63 80 76
145 131 148 132 127 125 121 117 118 115 114 117 112 96 92 89 91 91 93 92 93 90 92 92 90 92 93 93 94 97 95 95 106 128 164 82 84 81 78 80 84 83 78
142 148 137 135 131 129 124 119 118 110 97 93 92 92 91 95 88 87 95 100 97 105 97 96 103 96 95 104 99 91 90 93 90 166 78 90 91 90 86 87 91 92 89
142 140 116 139 136 131 130 121 113 102 101 97 96 100 99 98 97 93 92 93 94 100 100 101 97 97 103 99 97 98 96 102 99 97 78 72 89 93 93 104 100 76 59
139 127 132 140 137 130 126 116 116 103 99 98 100 99 102 97 95 93 91 90 90 97 103 91 94 106 109 102 99 99 104 129 142 92 82 75 76 84 84 77 88 79 71
142 126 137 139 136 131 117 126 114 106 101 104 99 92 95 96 95 91 95 94 91 95 85 81 91 103 118 105 103 102 96 56 99 74 83 83 88 86 84 82 83 77 71
141 138 129 139 138 129 126 116 113 109 100 100 97 98 98 97 94 103 103 102 97 93 85 83 102 98 101 106 102 98 92 357 90 86 77 77 89 92 90 87 80 75 76
144 125 141 143 130 127 130 126 116 113 106 105 106 103 100 99 96 100 102 104 101 95 93 91 94 95 99 98 100 96 83 18 89 52 108 102 80 85 88 90 78 75 77
151 137 143 132 158 158 140 127 126 119 115 111 102 112 114 104 108 114 117 95 97 94 86 87 88 96 96 100 100 108 152 206 95 133 74 80 90 87 82 77 78 75 68
155 149 155 146 147 118 124 130 132 118 129 126 122 135 183 103 108 101 80 102 97 90 85 81 80 106 108 100 102 154 225 76 87 76 84 80 83 83 87 76 70 71 69
159 162 150 138 139 157 120 164 128 152 124 103 98 102 97 79 53 85 94 101 98 98 97 91 89 150 182 155 141 196 85 101 87 91 86 94 79 77 78 71 77 69 72
160 152 151 141 157 136 136 147 139 136 136 116 119 110 105 121 122 100 134 139 129 189 125 136 156 73 60 68 69 75 102 118 110 81 90 98 86 80 77 77 69 56 53
158 163 159 150 159 143 146 160 142 121 135 131 109 127 145 122 109 105 95 111 129 82 103 65 85 77 93 72 59 70 76 83 80 92 100 62 104 88 79 89 69 64 52
164 171 161 151 164 150 168 132 135 124 142 113 137 110 114 108 107 108 102 90 74 104 103 100 84 76 115 101 84 76 83 72 80 72 103 102 75 77 78 70 67 54 46
173 173 160 166 160 163 152 159 146 148 118 139 130 110 120 109 112 123 129 119 114 106 96 99 60 88 89 111 94 74 72 101 66 63 82 129 141 130 82 88 55 9 350
176 171 168 173 165 163 153 169 178 161 152 146 116 141 120 158 118 99 119 131 108 110 138 129 132 144 110 115 97 96 110 100 107 97 87 63 150 165 173 196 226 318 320
175 168 173 182 169 168 162 177 180 154 174 149 138 144 136 100 124 151 155 126 108 152 137 116 128 107 111 110 91 85 102 114 106 113 90 29 48 116 166 163 212 275 291
176 171 177 185 174 167 162 180 188 148 213 157 155 161 131 143 122 141 175 127 204 130 120 141 122 129 127 116 140 132 124 111 167 115 111 115 100 1 26 148 182 221 244
176 176 180 184 173 172 163 182 188 169 191 178 179 115 163 152 122 133 151 153 205 145 133 88 111 89 67 44 53 89 95 132 139 144 133 173 110 168 144 29 229 163 192
178 180 182 186 174 182 177 185 184 188 184 197 191 144 156 169 134 141 180 173 207 156 79 134 154 159 129 103 219 161 147 193 193 235 213 83 102 187 54 87 269 1 156
177 182 181 190 182 196 183 195 203 211 191 210 175 163 167 167 173 149 169 167 202 136 145 134 236 149 100 57 16 244 102 156 133 60 96 154 58 50 109 165 44 171 273
177 183 183 188 183 196 191 189 194 197 229 176 183 176 168 189 169 170 174 166 168 249 158 174 167 313 134 142 347 336 275 57 186 126 149 122 140 126 80 147 171 153 213
184 186 183 185 190 193 195 194 211 211 213 196 188 173 149 191 161 178 175 173 205 218 116 166 192 1 282 145 182 74 351 1 344 127 112 107 169 179 91 178 131 145 176
189 189 186 187 191 201 193 222 201 229 208 172 204 124 165 180 185 182 188 183 180 208 163 154 170 249 179 300 322 174 59 106 142 319 107 125 133 115 116 177 71 81 150
191 196 189 188 196 200 203 209 213 218 236 212 201 149 189 178 191 200 193 194 189 178 192 199 193 195 270 307 298 311 354 309 51 71 117 112 89 112 105 110 118 63 38